This demonstration page uses our WeatherBlox Daily Observations layout. Learn more.

Left ArrowRight Arrow

39.92423, -83.80882

Hourly Observations for January 19, 2019

Temp ( °F °C ) Dew Point ( °F °C ) Humidity (%) Winds ( mph kmh ) Pressure ( in mb ) Visibility ( mi km ) Precip ( " mm )
12:56 am 00:56 Cloudy 32 undefined 29 -1.7 88 88 E 14 22 30.08 1019 9 14 N/A
1:56 am 01:56 Cloudy 32 undefined 29 -1.7 88 88 ESE 14 22 30.07 1018 7 11 N/A
2:56 am 02:56 Cloudy 32 undefined 29 -1.7 88 88 E 14 22 30.05 1018 9 14 N/A
3:56 am 03:56 Cloudy 33 0.6 29 -1.7 85 85 E 13 20 30.08 1019 9 14 N/A
4:56 am 04:56 Cloudy with Light Wintry Mix 32 undefined 30 -1.1 92 92 E 16 26 30.02 1017 5 8 N/A
5:08 am 05:08 Cloudy with Light Freezing Rain 32 undefined 30 -1 93 93 E 21 33 30.00 1016 4 6 N/A
5:43 am 05:43 Cloudy with Mist and Fog 32 undefined 30 -1 93 93 E 16 26 30.00 1016 5 8 N/A
5:56 am 05:56 Cloudy with Mist and Fog 32 undefined 31 -0.6 96 96 E 16 26 29.98 1015 5 8 N/A
6:56 am 06:56 Cloudy with Light Snow 31 -0.6 30 -1.1 96 96 E 18 30 29.94 1014 4 6 N/A
7:56 am 07:56 Cloudy with Light Snow 31 -0.6 31 -0.6 100 100 E 16 26 29.91 1013 3 4 N/A
8:08 am 08:08 Cloudy with Light Freezing Rain 30 -1 30 -1 100 100 E 21 33 29.94 1014 3 4 N/A
8:56 am 08:56 Cloudy with Light Freezing Rain 32 undefined 31 -0.6 96 96 E 17 28 29.91 1013 2 3 0.05 1.27
9:44 am 09:44 Cloudy with Light Freezing Rain 32 undefined 30 -1 93 93 E 21 33 29.88 1012 4 6 0.04 1.02
9:56 am 09:56 Cloudy with Light Freezing Rain 32 undefined 31 -0.6 96 96 E 22 35 29.86 1011 4 6 0.04 1.02
10:56 am 10:56 Cloudy with Light Freezing Rain 32 undefined 31 -0.6 96 96 E 21 33 29.82 1010 4 6 0.05 1.27
11:05 am 11:05 Cloudy with Light Wintry Mix 32 undefined 30 -1 93 93 E 21 33 29.85 1011 4 6 0.01 0.25
11:33 am 11:33 Cloudy with Light Wintry Mix 32 undefined 32 undefined 100 100 E 16 26 29.83 1010 3 4 0.05 1.27
11:56 am 11:56 Cloudy with Rain 33 0.6 32 undefined 96 96 E 15 24 29.78 1009 3 4 0.11 2.79
12:27 pm 12:27 Cloudy with Light Wintry Mix 34 1 32 undefined 93 93 ENE 14 22 29.77 1008 2 3 0.11 2.79
12:56 pm 12:56 Cloudy with Light Wintry Mix 33 0.6 32 undefined 96 96 ENE 14 22 29.74 1007 3 4 0.21 5.33
1:05 pm 13:05 Cloudy with Light Rain 32 undefined 32 undefined 100 100 ENE 14 22 29.71 1006 4 6 0.02 0.51
1:23 pm 13:23 Cloudy with Rain 34 1 32 undefined 93 93 NE 15 24 29.71 1006 3 4 0.05 1.27
1:42 pm 13:42 Cloudy with Rain 32 undefined 32 undefined 100 100 NE 13 20 29.71 1006 3 5 0.11 2.79
1:53 pm 13:53 Cloudy with Light Wintry Mix 32 undefined 32 undefined 100 100 NE 12 19 29.71 1006 3 4 0.14 3.56
1:56 pm 13:56 Cloudy with Light Wintry Mix 32 undefined 32 undefined 100 100 NE 13 20 29.70 1006 3 4 0.15 3.81
2:28 pm 14:28 Cloudy with Light Wintry Mix 32 undefined 32 undefined 100 100 NE 16 26 29.65 1004 3 5 0.06 1.52
2:39 pm 14:39 Cloudy with Light Wintry Mix 32 undefined 32 undefined 100 100 NE 16 26 29.65 1004 2 3 0.08 2.03
2:48 pm 14:48 Cloudy with Light Wintry Mix 32 undefined 32 undefined 100 100 NE 17 28 29.65 1004 2 3 0.10 2.54
2:56 pm 14:56 Cloudy with Light Wintry Mix 32 undefined 32 undefined 100 100 NE 16 26 29.66 1004 1 2 0.12 3.05
3:27 pm 15:27 Cloudy with Light Wintry Mix 32 undefined 32 undefined 100 100 NE 17 28 29.65 1004 2 3 0.04 1.02
3:43 pm 15:43 Cloudy with Light Wintry Mix 32 undefined 32 undefined 100 100 NNE 18 30 29.65 1004 3 5 0.06 1.52
3:51 pm 15:51 Cloudy with Light Freezing Rain 32 undefined 32 undefined 100 100 NE 18 30 29.65 1004 2 3 0.08 2.03
3:56 pm 15:56 Cloudy with Light Freezing Rain 32 undefined 32 undefined 100 100 NE 21 33 29.64 1004 2 2 0.09 2.29
4:11 pm 16:11 Cloudy with Light Freezing Rain 32 undefined 32 undefined 100 100 NNE 23 37 29.62 1003 3 4 0.02 0.51
4:41 pm 16:41 Cloudy with Light Freezing Rain 32 undefined 30 -1 93 93 NNE 22 35 29.62 1003 4 6 0.06 1.52
4:50 pm 16:50 Cloudy with Light Freezing Rain 32 undefined 30 -1 93 93 NNE 20 31 29.62 1003 3 4 0.07 1.78
4:56 pm 16:56 Cloudy with Light Freezing Rain 31 -0.6 31 -0.6 100 100 NNE 20 31 29.63 1003 3 5 0.07 1.78
5:14 pm 17:14 Cloudy with Light Freezing Rain 30 -1 30 -1 100 100 NNE 20 31 29.62 1003 2 3 0.04 1.02
5:29 pm 17:29 Cloudy with Light Freezing Rain 30 -1 30 -1 100 100 NNE 18 30 29.62 1003 3 4 0.08 2.03
5:38 pm 17:38 Windy with Snow Likely 30 -1 30 -1 100 100 NNE 23 37 29.62 1003 3 5 0.09 2.29
5:56 pm 17:56 Windy with Snow Likely 31 -0.6 30 -1.1 96 96 NNE 21 33 29.63 1003 3 5 0.12 3.05
6:56 pm 18:56 Windy with Snow Likely 30 -1.1 29 -1.7 96 96 NE 22 35 29.56 1001 8 13 0.05 1.27
7:45 pm 19:45 Cloudy with Light Snow 28 -2 28 -2 100 100 NNE 17 28 29.65 1004 9 14 N/A
7:56 pm 19:56 Windy with Snow Likely 29 -1.7 27 -2.8 92 92 NNE 23 37 29.58 1002 9 14 N/A
8:56 pm 20:56 Windy with Snow Likely 27 -2.8 25 -3.9 92 92 N 20 31 29.64 1004 3 5 N/A
9:05 pm 21:05 Windy with Snow Likely 27 -3 25 -4 93 93 N 22 35 29.68 1005 2 3 N/A
9:14 pm 21:14 Windy with Snow Likely 25 -4 23 -5 93 93 N 25 41 29.68 1005 2 3 N/A
9:44 pm 21:44 Windy with Snow Likely 21 -6 21 -6 100 100 N 24 39 29.68 1005 2 2 0.02 0.51
9:56 pm 21:56 Windy with Snow Likely 22 -5.6 21 -6.1 96 96 N 23 37 29.65 1004 1 2 0.02 0.51
10:20 pm 22:20 Windy with Snow Likely 21 -6 19 -7 93 93 N 22 35 29.65 1004 3 4 N/A
10:36 pm 22:36 Cloudy with Light Snow 21 -6 19 -7 93 93 N 17 28 29.65 1004 2 2 0.01 0.25
10:56 pm 22:56 Windy with Snow Likely 21 -6.1 20 -6.7 96 96 N 25 41 29.64 1004 1 2 0.01 0.25
11:18 pm 23:18 Windy with Snow Likely 19 -7 19 -7 100 100 N 23 37 29.68 1005 1 2 N/A
11:35 pm 23:35 Windy with Snow Likely 19 -7 19 -7 100 100 N 25 41 29.71 1006 1 1 N/A
11:53 pm 23:53 Windy with Snow Likely 19 -7 18 -8 93 93 N 23 37 29.71 1006 1 1 N/A
11:56 pm 23:56 Windy with Snow Likely 20 -6.7 18 -7.8 92 92 N 22 35 29.69 1005 1 1 N/A

Powered by AerisWeather